User: anonymous   Login
Location: Drummondville
(45.8830°N, 72.4830°W)
Time: 15:38:28
(UTC-05:00)
Language:

N. Korean satellite - Orbit

View from above orbital plane
View from above orbital plane
View from above satellite
View from above satellite

Ground track
Ground track

The orbit data is extracted from the following two-line orbital elements,

1 39026U 12072A   18322.94090125 +.00001486 +00000-0 +57171-4 0  9992
2 39026 097.2102 328.0836 0040012 131.9432 228.5229 15.27207981329212
Epoch (UTC): 18 November 2018 22:34:53
Eccentricity: 0.0040012
inclination: 97.2102°
perigee height: 457 km
apogee height: 511 km
right ascension of ascending node: 328.0836°
argument of perigee: 131.9432°
revolutions per day: 15.27207981
mean anomaly at epoch: 228.5229°
orbit number at epoch: 32921

The dashed part of the orbit path shows where the satellite is in the earth's shadow,  

DLR